Terminal Aerodrome Forecast
Issued by NWS New Orleans/Baton Rouge, LA

Home | Current Version | Previous Version | Text Only | Print | Product List | Glossary On
Versions: 1 2 3 4 5 6 7 8 9 10 11 12 13 14 15 16 17 18 19 20 21 22 23 24 25 26 27 28 29 30 31 32 33
000
FTUS44 KLIX 230000 AAA
TAFNEW
TAF AMD
KNEW 230035Z 2301/2324 00000KT P6SM BKN150
     FM230100 00000KT P6SM SCT150
     FM231600 VRB03KT P6SM SCT030 BKN050
      TEMPO 2319/2322 3SM TSRA BKN035CB=

USA.gov is the U.S. government's official web portal to all federal, state and local government web resources and services.